User: anonymous   Login
Location: ActonStarParty
(42.4766°N, 71.4538°W)
Time: 14:04:43
(UTC-05:00)
Language:

Cosmos 1300 - Orbit

View from above orbital plane
View from above orbital plane
View from above satellite
View from above satellite

Ground track
Ground track

The orbit data is extracted from the following two-line orbital elements,

1 12785U 81082A   14324.84685315  .00009049  00000-0  51974-3 0  8693
2 12785 082.5053 279.8523 0001217 115.1130 305.4813 15.12394995809590
Epoch (UTC): 20 November 2014 20:19:28
Eccentricity: 0.0001217
inclination: 82.5053°
perigee height: 528 km
apogee height: 530 km
right ascension of ascending node: 279.8523°
argument of perigee: 115.1130°
revolutions per day: 15.12394995
mean anomaly at epoch: 305.4813°
orbit number at epoch: 80959

The dashed part of the orbit path shows where the satellite is in the earth's shadow,  

DLR